Location: Batang Balui
(2.7000°N, 113.7833°E)
Time: 23:07:56
(UTC+00:00)

Milstar 3 Cent rocket - Pass Details

Date: 03 December 2021
Orbit: 706 x 5147 km, 28.3° (Epoch: 27 January)

Event Time Altitude Azimuth Distance (km) Brightness Sun altitude
Rises 10:47:00 0° 281° (WNW) 3,209 6.3 -8.5°
Reaches altitude 10° 10:49:38 10° 270° (W) 2,177 5.6 -9.1°
Maximum altitude 10:53:44 30° 207° (SSW) 1,274 3.7 -10.0°
Drops below altitude 10° 10:58:27 10° 145° (SE) 2,527 4.5 -11.1°
Sets 11:01:48 0° 134° (SE) 3,842 5.4 -11.9°
